[[{"header":{"parameterUnit":"m.s-1","parameterCategory":1,"la1":30.2991,"la2":30.254,"lo1":-89.0895,"lo2":-89.0444,"dy":0.0017,"dx":0.0017,"nx":28,"ny":28,"refTime":"2025-11-27T03:00:00:Z","depth":0,"parameterNumber":2,"parameterNumberName":"U-component_of_WINDS"},"data":[0,0,0,0,0,0,0,0,0,0,0,0,0,0,0,0,0,0,0,0,0,0,0,0,0,0,0,0,0,0,0,0,0,0,0,0,0,0,0,0,0,0,0,0,0,0,0,0,0,0,0,0,0,0,0,0,0,0,-0.7787,-0.7787,0,-0.7791,-0.7791,-0.7791,-0.7759,-0.7758,-0.7757,-0.7756,-0.7761,-0.7762,-0.7763,0,0,0,0,0,0,0,0,0,0,0,0,0,-0.775,-0.7751,-0.7787,-0.7787,-0.7787,-0.7791,-0.7791,-0.7791,-0.7759,-0.7758,-0.7757,-0.7755,-0.7761,-0.7762,-0.7764,0,0,0,0,0,0,0,0,0,0,0,0,0,-0.7761,-0.7751,-0.7787,-0.7771,-0.777,-0.7791,-0.7791,-0.7791,-0.7759,-0.7758,-0.7756,-0.7755,-0.7761,-0.7762,-0.7764,-0.7801,0,0,-0.7768,-0.7769,0,0,0,0,0,0,0,0,-0.7761,-0.7763,-0.7773,-0.7772,-0.7771,-0.7773,-0.778,-0.7795,-0.7759,-0.7763,-0.7756,-0.7754,-0.7766,-0.7767,-0.7771,-0.7801,-0.7801,-0.7768,-0.7769,-0.777,-0.777,0,0,0,0,0,0,0,-0.776,-0.7762,-0.7788,-0.7773,-0.7772,-0.7764,-0.7764,-0.7783,-0.7773,-0.7763,-0.776,-0.7761,-0.7765,-0.777,-0.7771,-0.7801,-0.7768,-0.777,-0.7771,-0.7771,-0.7861,-0.7863,0,0,0,0,0,0,-0.7761,-0.7762,-0.7788,-0.7789,-0.7762,-0.7766,-0.7766,-0.7774,-0.7772,-0.7771,-0.7762,-0.776,-0.7768,-0.777,-0.7771,-0.7815,-0.777,-0.7771,-0.7772,-0.786,-0.7862,-0.7863,0,0,0,0,0,0,-0.776,-0.7764,-0.7788,-0.7775,-0.7777,-0.7768,-0.7777,-0.7774,-0.7779,-0.7772,-0.777,-0.7769,-0.7767,-0.7769,-0.7794,-0.7815,-0.7772,-0.7773,-0.7858,-0.7861,-0.7863,-0.7902,0,0,0,0,0,0,-0.776,-0.7764,-0.7778,-0.7775,-0.7778,-0.781,-0.7778,-0.7775,-0.7781,-0.7778,-0.7778,-0.7776,-0.7766,-0.7792,-0.7795,-0.7816,-0.7775,-0.7856,-0.7859,-0.7862,-0.7899,-0.7905,-0.7911,0,0,0,0,0,-0.7758,-0.7789,-0.7779,-0.7782,-0.7795,-0.7812,-0.7813,-0.7801,-0.7783,-0.7797,-0.7793,-0.7776,-0.7811,-0.7794,-0.7798,-0.782,-0.7855,-0.7858,-0.7862,-0.7896,-0.7904,-0.7911,0,0,0,0,0,0,-0.7795,-0.7788,-0.7777,-0.7807,-0.781,-0.7806,-0.7824,-0.781,-0.7818,-0.7814,-0.7798,-0.7799,-0.7826,-0.7825,-0.7806,-0.7855,-0.783,-0.7834,-0.7855,-0.7863,-0.7868,-0.7869,-0.7776,0,0,0,0,0,-0.7806,-0.782,-0.7814,-0.7841,-0.7843,-0.7833,-0.784,-0.783,-0.7832,-0.7834,-0.7831,-0.7834,-0.7846,-0.7854,-0.7864,-0.7898,-0.7898,-0.7915,-0.7921,-0.7926,-0.793,-0.7948,-0.7955,-0.7874,-0.7874,-0.7874,0,0,-0.7831,-0.7829,-0.7838,-0.7849,-0.785,-0.7864,-0.7835,-0.7851,-0.7862,-0.7836,-0.7859,-0.7857,-0.786,-0.7889,-0.7902,-0.7889,-0.7952,-0.793,-0.7934,-0.7936,-0.7952,-0.796,-0.7967,-0.7877,-0.7876,-0.7876,0,0,-0.7882,-0.7882,-0.7905,-0.7907,-0.7908,-0.7901,-0.7907,-0.7904,-0.7902,-0.7925,-0.7905,-0.7918,-0.7938,-0.7941,-0.7945,-0.7997,-0.7982,-0.8,-0.8033,-0.805,-0.8057,-0.8062,-0.8081,-0.8088,-0.8004,-0.8005,-0.8005,0,-0.7912,-0.7934,-0.7919,-0.7937,-0.7942,-0.7918,-0.7942,-0.7944,-0.7949,-0.7953,-0.7939,-0.7964,-0.7964,-0.7993,-0.8006,-0.801,-0.8016,-0.8001,-0.8057,-0.8062,-0.8067,-0.8085,-0.8092,-0.8007,-0.8007,-0.8006,-0.8006,0,-0.7971,-0.7986,-0.8004,-0.8009,-0.8016,-0.8037,-0.8025,-0.8034,-0.8023,-0.8018,-0.8041,-0.804,-0.805,-0.8056,-0.8045,-0.8084,-0.8076,-0.8059,-0.8034,-0.8078,-0.8094,-0.8101,-0.801,-0.8009,-0.8009,-0.8008,0,0,-0.8047,-0.8043,-0.805,-0.8052,-0.8052,-0.8063,-0.8083,-0.8092,-0.81,-0.8104,-0.812,-0.8137,-0.8122,-0.8126,-0.8116,-0.8131,-0.8173,-0.8113,-0.8112,-0.8125,-0.8216,-0.8229,-0.8237,-0.8163,-0.8164,-0.8165,-0.8216,0,-0.8098,-0.8131,-0.8118,-0.8152,-0.8166,-0.8143,-0.816,-0.8162,-0.8157,-0.8168,-0.8162,-0.8175,-0.8153,-0.8156,-0.817,-0.8165,-0.8191,-0.8161,-0.8178,-0.8179,-0.8179,-0.8246,-0.826,-0.8309,-0.8222,-0.8223,-0.8224,0,-0.8162,-0.8169,-0.8204,-0.8201,-0.8207,-0.8222,-0.8229,-0.824,-0.8241,-0.8237,-0.8241,-0.8227,-0.8246,-0.822,-0.8246,-0.8226,-0.8231,-0.823,-0.8232,-0.8234,-0.8205,-0.8251,-0.8324,-0.8331,-0.8234,-0.8233,-0.8233,0,-0.8215,-0.8233,-0.8256,-0.8258,-0.8255,-0.8267,-0.8266,-0.8266,-0.8272,-0.8278,-0.8282,-0.8291,-0.8295,-0.8302,-0.8291,-0.8273,-0.8319,-0.8291,-0.8316,-0.8316,-0.8327,-0.8327,-0.8403,-0.833,-0.833,-0.8329,-0.8329,0,-0.8274,-0.8297,-0.828,-0.8295,-0.8319,-0.8304,-0.8329,-0.8325,-0.8325,-0.8339,-0.8319,-0.8332,-0.8316,-0.8328,-0.8319,-0.8342,-0.8344,-0.8341,-0.8339,-0.8343,-0.8344,-0.8348,-0.8345,-0.8331,-0.8331,-0.8331,-0.833,0,-0.8338,-0.8327,-0.8352,-0.8346,-0.8346,-0.8364,-0.836,-0.8373,-0.8366,-0.8384,-0.8387,-0.8377,-0.8389,-0.8378,-0.839,-0.8384,-0.8415,-0.8407,-0.8415,-0.8413,-0.8438,-0.8437,-0.8521,-0.8531,-0.845,-0.8451,-0.8452,0,-0.8377,-0.8394,-0.8391,-0.8398,-0.8399,-0.8411,-0.8417,-0.8402,-0.8409,-0.8411,-0.8425,-0.8435,-0.8443,-0.8465,-0.8458,-0.8468,-0.846,-0.8489,-0.8462,-0.8466,-0.8462,-0.8461,-0.8463,-0.8495,-0.8496,-0.8497,-0.8498,0,-0.8448,-0.8441,-0.8451,-0.8459,-0.8466,-0.8471,-0.8475,-0.8483,-0.8467,-0.8476,-0.8488,-0.8494,-0.8507,-0.8518,-0.8525,-0.8524,-0.8509,-0.8506,-0.8512,-0.8518,-0.8522,-0.8521,-0.8431,-0.8505,-0.8504,-0.8503,-0.8503,-0.8503,-0.8501,-0.8515,-0.8515,-0.8526,-0.8527,-0.8531,-0.8543,-0.8537,-0.8547,-0.8556,-0.8546,-0.8561,-0.8562,-0.857,-0.8571,-0.8582,-0.857,-0.8579,-0.8582,-0.8585,-0.8589,-0.8519,-0.8584,-0.8583,-0.8583,-0.8583,-0.8583,0,-0.8571,-0.857,-0.858,-0.8586,-0.8594,-0.8578,-0.8581,-0.859,-0.8603,-0.8605,-0.8613,-0.8627,-0.8637,-0.8632,-0.8641,-0.8651,-0.8645,-0.8654,-0.8654,-0.8654,-0.8598,-0.8593,-0.866,-0.866,-0.866,-0.866,-0.866,-0.866,-0.8609,-0.8632,-0.8625,-0.8649,-0.8647,-0.8661,-0.8665,-0.8668,-0.8669,-0.8686,-0.8694,-0.869,-0.8689,-0.8697,-0.8706,-0.8704,-0.8709,-0.8722,-0.8717,-0.8666,-0.8658,-0.8651,-0.8645,-0.8723,-0.8723,-0.8772,-0.8773,-0.8773]},{"header":{"parameterUnit":"m.s-1","parameterCategory":1,"la1":30.2991,"la2":30.254,"lo1":-89.0895,"lo2":-89.0444,"dy":0.0017,"dx":0.0017,"nx":28,"ny":28,"refTime":"2025-11-27T03:00:00:Z","depth":0,"parameterNumber":3,"parameterNumberName":"V-component_of_WINDS"},"data":[0,0,0,0,0,0,0,0,0,0,0,0,0,0,0,0,0,0,0,0,0,0,0,0,0,0,0,0,0,0,0,0,0,0,0,0,0,0,0,0,0,0,0,0,0,0,0,0,0,0,0,0,0,0,0,0,0,0,-5.4851,-5.4852,0,-5.491,-5.4911,-5.4911,-5.4886,-5.4885,-5.4883,-5.4882,-5.4937,-5.494,-5.4943,0,0,0,0,0,0,0,0,0,0,0,0,0,-5.4713,-5.4716,-5.4851,-5.4852,-5.4852,-5.491,-5.4911,-5.4911,-5.4886,-5.4885,-5.4883,-5.4881,-5.4936,-5.494,-5.4943,0,0,0,0,0,0,0,0,0,0,0,0,0,-5.4772,-5.4716,-5.4851,-5.4847,-5.4847,-5.491,-5.4911,-5.4912,-5.4887,-5.4885,-5.4882,-5.488,-5.4935,-5.4939,-5.4943,-5.5011,0,0,-5.4956,-5.4958,0,0,0,0,0,0,0,0,-5.4769,-5.4777,-5.4847,-5.4847,-5.4848,-5.4889,-5.4882,-5.4945,-5.4887,-5.4872,-5.4882,-5.4879,-5.4922,-5.4928,-5.4943,-5.5014,-5.5016,-5.4957,-5.4959,-5.4961,-5.4962,0,0,0,0,0,0,0,-5.4765,-5.4775,-5.4874,-5.4848,-5.4848,-5.4841,-5.4847,-5.4894,-5.4908,-5.4873,-5.4871,-5.4879,-5.4922,-5.4939,-5.4944,-5.5017,-5.4956,-5.496,-5.4963,-5.4964,-5.5148,-5.5151,0,0,0,0,0,0,-5.4761,-5.4771,-5.4872,-5.4876,-5.4803,-5.4845,-5.4852,-5.4878,-5.4907,-5.491,-5.488,-5.4877,-5.4933,-5.4939,-5.4946,-5.5029,-5.4961,-5.4965,-5.4967,-5.5146,-5.5149,-5.5151,0,0,0,0,0,0,-5.4758,-5.4771,-5.487,-5.4823,-5.4835,-5.485,-5.4879,-5.488,-5.4897,-5.4913,-5.4915,-5.4895,-5.4932,-5.494,-5.4996,-5.503,-5.4967,-5.497,-5.5143,-5.5147,-5.515,-5.5194,0,0,0,0,0,0,-5.4755,-5.477,-5.4797,-5.4824,-5.4838,-5.492,-5.4881,-5.4882,-5.4905,-5.4901,-5.4928,-5.493,-5.4931,-5.499,-5.5,-5.5035,-5.4974,-5.514,-5.5145,-5.5149,-5.519,-5.5199,-5.5207,0,0,0,0,0,-5.475,-5.4805,-5.4798,-5.481,-5.4872,-5.4922,-5.493,-5.4931,-5.4907,-5.4934,-5.4945,-5.4929,-5.5025,-5.4996,-5.5007,-5.5044,-5.5138,-5.5143,-5.5149,-5.5186,-5.5197,-5.5206,0,0,0,0,0,0,-5.4779,-5.4809,-5.4801,-5.4867,-5.4893,-5.4918,-5.4952,-5.4942,-5.4973,-5.4969,-5.4967,-5.4973,-5.5031,-5.5043,-5.501,-5.5112,-5.5078,-5.5086,-5.5102,-5.5113,-5.5121,-5.5117,-5.4977,0,0,0,0,0,-5.4794,-5.4833,-5.4856,-5.4912,-5.4926,-5.4937,-5.4958,-5.4957,-5.4983,-5.4993,-5.5008,-5.5032,-5.5067,-5.509,-5.5124,-5.5191,-5.5197,-5.5222,-5.523,-5.5237,-5.5244,-5.5282,-5.5293,-5.5169,-5.5169,-5.5169,0,0,-5.4823,-5.4844,-5.4869,-5.4919,-5.4939,-5.4979,-5.4946,-5.4989,-5.5019,-5.4999,-5.5053,-5.5065,-5.5092,-5.5154,-5.5182,-5.5166,-5.528,-5.5244,-5.5249,-5.5253,-5.5288,-5.53,-5.531,-5.5173,-5.5172,-5.5171,0,0,-5.4898,-5.4918,-5.4968,-5.4989,-5.502,-5.5027,-5.5039,-5.5066,-5.5074,-5.5129,-5.5115,-5.5149,-5.521,-5.5231,-5.5249,-5.5333,-5.532,-5.5344,-5.5388,-5.5425,-5.5435,-5.5443,-5.5474,-5.5485,-5.5351,-5.5351,-5.5351,0,-5.493,-5.4992,-5.4994,-5.504,-5.5062,-5.5048,-5.5098,-5.5118,-5.5157,-5.5173,-5.5154,-5.5231,-5.5248,-5.5316,-5.5337,-5.5351,-5.5365,-5.5341,-5.5433,-5.5442,-5.545,-5.548,-5.5491,-5.5354,-5.5353,-5.5353,-5.5353,0,-5.5031,-5.5074,-5.5111,-5.5152,-5.5178,-5.5226,-5.5234,-5.526,-5.5257,-5.5266,-5.5322,-5.5342,-5.538,-5.5396,-5.5392,-5.5463,-5.5452,-5.5433,-5.5399,-5.5465,-5.5492,-5.5504,-5.5358,-5.5357,-5.5356,-5.5355,0,0,-5.5125,-5.5169,-5.5182,-5.5202,-5.5235,-5.5268,-5.5314,-5.5354,-5.5377,-5.5404,-5.5444,-5.5496,-5.548,-5.5501,-5.5499,-5.5531,-5.5598,-5.5508,-5.5509,-5.5525,-5.5679,-5.5693,-5.5706,-5.5589,-5.5592,-5.5593,-5.5677,0,-5.5204,-5.5288,-5.5292,-5.5368,-5.5408,-5.5396,-5.5437,-5.5462,-5.5471,-5.5505,-5.5515,-5.5553,-5.5528,-5.5541,-5.5572,-5.5583,-5.5629,-5.5577,-5.5625,-5.5627,-5.562,-5.572,-5.5736,-5.5813,-5.5687,-5.5689,-5.569,0,-5.5306,-5.5341,-5.5422,-5.5452,-5.5468,-5.5505,-5.5542,-5.5575,-5.5603,-5.5607,-5.5632,-5.5626,-5.5673,-5.5637,-5.5702,-5.5667,-5.5687,-5.5695,-5.5698,-5.5703,-5.5663,-5.5729,-5.5838,-5.585,-5.5707,-5.5706,-5.5705,0,-5.5369,-5.5434,-5.5492,-5.5508,-5.5544,-5.5571,-5.5586,-5.5612,-5.5636,-5.5667,-5.5683,-5.5719,-5.5738,-5.5766,-5.5769,-5.5743,-5.5835,-5.5799,-5.584,-5.584,-5.586,-5.5859,-5.5975,-5.5872,-5.5871,-5.5871,-5.5871,0,-5.5456,-5.5506,-5.5521,-5.5556,-5.5612,-5.5615,-5.567,-5.5683,-5.5707,-5.5744,-5.5734,-5.5769,-5.5771,-5.5807,-5.5809,-5.5863,-5.5872,-5.5876,-5.5877,-5.5878,-5.5877,-5.5891,-5.5886,-5.5874,-5.5874,-5.5873,-5.5872,0,-5.5535,-5.5546,-5.5609,-5.5638,-5.5647,-5.5687,-5.5712,-5.5745,-5.5754,-5.5801,-5.5812,-5.5826,-5.5868,-5.5874,-5.5922,-5.5924,-5.5988,-5.5982,-5.598,-5.5979,-5.602,-5.6017,-5.6149,-5.6167,-5.6052,-5.6053,-5.6054,0,-5.559,-5.5629,-5.5664,-5.569,-5.5708,-5.5748,-5.5773,-5.5777,-5.5804,-5.5839,-5.5868,-5.5909,-5.5942,-5.6008,-5.6022,-5.6058,-5.6054,-5.6098,-5.6059,-5.6059,-5.6055,-5.6053,-5.6058,-5.6105,-5.6107,-5.6108,-5.6108,0,-5.5688,-5.5693,-5.573,-5.5771,-5.5801,-5.5832,-5.5862,-5.5883,-5.5891,-5.592,-5.5964,-5.599,-5.604,-5.608,-5.6117,-5.6132,-5.6122,-5.6121,-5.6132,-5.6134,-5.6131,-5.6134,-5.6001,-5.6118,-5.6117,-5.6116,-5.6115,-5.6115,-5.5758,-5.5792,-5.5823,-5.5866,-5.5889,-5.5917,-5.5951,-5.5965,-5.6002,-5.6045,-5.6044,-5.6092,-5.6119,-5.6168,-5.6185,-5.6222,-5.6207,-5.6223,-5.6228,-5.6232,-5.6237,-5.6125,-5.6228,-5.6228,-5.6227,-5.6227,-5.6227,0,-5.5856,-5.5876,-5.5915,-5.5958,-5.5991,-5.5981,-5.6013,-5.6041,-5.6084,-5.6111,-5.6145,-5.6195,-5.6234,-5.6252,-5.6291,-5.6317,-5.6313,-5.6327,-5.6325,-5.6329,-5.6247,-5.6233,-5.6329,-5.6329,-5.6329,-5.6329,-5.6329,-5.6329,-5.5911,-5.597,-5.5978,-5.6048,-5.6066,-5.6115,-5.6135,-5.616,-5.6182,-5.624,-5.6273,-5.6285,-5.6308,-5.6349,-5.6385,-5.6388,-5.6403,-5.642,-5.6421,-5.6345,-5.6334,-5.6324,-5.6312,-5.6423,-5.6423,-5.65,-5.6501,-5.6502]}]]